Regional Weather Roundup
Issued by NWS

Home | Current Version | Previous Version | Graphics & Text | Print | Product List | Glossary On
Versions: 1 2 3 4 5 6 7 8 9 10 11 12 13 14 15 16 17 18 19 20 21 22 23 24 25 26 27 28 29 30 31 32 33 34 35 36 37 38 39 40 41 42 43 44 45 46 47 48 49 50
000
ASUS43 KFSD 272310
RWRSD

WEATHER ROUNDUP FOR SOUTH DAKOTA
NATIONAL WEATHER SERVICE SIOUX FALLS SD
600 PM CDT TUE SEP 27 2016

NOTE: "FAIR" INDICATES FEW OR NO CLOUDS BELOW 12,000 FEET WITH NO
SIGNIFICANT WEATHER AND/OR OBSTRUCTIONS TO VISIBILITY.


SDZ001>005-009-010-012>017-280000-
NORTHWEST AND NORTH CENTRAL SOUTH DAKOTA

CITY           SKY/WX    TMP DP  RH WIND       PRES   REMARKS
BUFFALO          N/A     81  41  24 NW20      29.91S
FAITH            N/A     81  40  23 N12       29.94S
MOBRIDGE       SUNNY     75  40  28 NE13      29.90S
$$

SDZ012>016-024>037-041>051-057-063-072>074-280000-
SOUTHWEST AND SOUTH CENTRAL SOUTH DAKOTA

CITY           SKY/WX    TMP DP  RH WIND       PRES   REMARKS
RAPID CTY ARPT SUNNY     82  41  23 N22       29.98S
PIERRE         SUNNY     80  41  24 N9        29.88S
CUSTER         SUNNY     73  40  30 E12G20    30.13S
ELLSWORTH AFB  SUNNY     82  41  23 N17       29.99R
PHILIP         SUNNY     84  39  20 NW9       29.92S
PINE RIDGE     SUNNY     83  40  21 N10       29.99S
WINNER         FAIR      82  43  25 N20       29.91S
$$

SDZ004>011-016>023-039-040-280000-
NORTHEAST SOUTH DAKOTA

CITY           SKY/WX    TMP DP  RH WIND       PRES   REMARKS
ABERDEEN       SUNNY     71  37  28 N17       29.89S
WATERTOWN      SUNNY     67  32  27 N14       29.88R
BROOKINGS      SUNNY     68  41  37 N13       29.86S
SISSETON         N/A     67  29  24 N18       29.86R
$$

SDZ017-020-022-023-036>040-048>070-280000-
SOUTHEAST SOUTH DAKOTA

CITY           SKY/WX    TMP DP  RH WIND       PRES   REMARKS
SIOUX FALLS    MOSUNNY   74  43  32 NW13      29.85F
HURON          SUNNY     75  40  28 N17       29.87S
CHAMBERLAIN    SUNNY     79  46  30 N12       29.90S
MITCHELL       SUNNY     76  42  29 N12       29.87F
YANKTON        SUNNY     75  46  35 NW13      29.85F
$$

ABBREVIATIONS USED IN REMARKS
   TC - TEMPERATURE IN CELSIUS
  WCI - WIND CHILL INDEX
   HX - HEAT INDEX
  VSB - VISIBILITY





USA.gov is the U.S. government's official web portal to all federal, state and local government web resources and services.